Precipitable_Water
0.73 0.71 0.67 0.66 0.64 0.62 0.62 0.62 0.62 0.62 0.62 0.61 0.60 0.60 0.59 0.59 0.58 0.58 0.57 0.57 0.55 0.53 0.51 0.48 0.46 0.46 0.48 0.48 0.48 0.44 0.44 0.43 0.49 0.53 0.56 0.31 0.26 0.29 0.28 0.27 0.26 0.28 0.35 0.35 0.35 0.38 0.36 0.24 0.22 0.24 0.24 0.19 0.17 0.19 0.26 0.28 0.31 0.32 0.25 0.21 0.21 0.22 0.23 0.24 0.25 0.29 0.33 0.31 0.33 0.30 0.30 0.30 0.32 0.41 0.46 0.50 0.46 0.46 0.45 0.44 0.50 0.57 0.66 0.74 0.90 1.00 1.08 1.17
0.74 0.73 0.69 0.67 0.67 0.66 0.64 0.65 0.66 0.66 0.65 0.63 0.61 0.60 0.60 0.60 0.59 0.59 0.58 0.57 0.56 0.54 0.51 0.49 0.47 0.46 0.49 0.49 0.47 0.48 0.45 0.43 0.42 0.47 0.38 0.37 0.33 0.29 0.26 0.27 0.27 0.24 0.30 0.29 0.30 0.30 0.24 0.25 0.21 0.25 0.21 0.17 0.17 0.16 0.20 0.24 0.30 0.27 0.26 0.24 0.18 0.21 0.25 0.30 0.28 0.29 0.29 0.30 0.34 0.35 0.33 0.30 0.28 0.37 0.46 0.43 0.43 0.42 0.42 0.44 0.44 0.53 0.75 0.67 0.93 0.95 1.01 1.06
0.75 0.74 0.72 0.67 0.67 0.65 0.65 0.66 0.67 0.67 0.67 0.65 0.63 0.62 0.62 0.62 0.61 0.60 0.59 0.57 0.56 0.54 0.52 0.49 0.48 0.48 0.47 0.49 0.50 0.48 0.49 0.46 0.54 0.44 0.35 0.37 0.31 0.30 0.32 0.28 0.26 0.24 0.25 0.27 0.31 0.20 0.20 0.21 0.24 0.24 0.20 0.16 0.17 0.15 0.17 0.18 0.25 0.27 0.26 0.23 0.21 0.23 0.23 0.26 0.29 0.30 0.30 0.29 0.32 0.32 0.30 0.29 0.31 0.33 0.43 0.44 0.43 0.42 0.39 0.40 0.39 0.49 0.65 0.73 0.87 0.90 0.98 1.01
0.76 0.75 0.74 0.70 0.66 0.65 0.65 0.66 0.67 0.68 0.67 0.66 0.64 0.63 0.63 0.64 0.62 0.61 0.59 0.57 0.55 0.55 0.53 0.51 0.49 0.47 0.48 0.46 0.51 0.54 0.56 0.54 0.48 0.39 0.42 0.40 0.34 0.34 0.30 0.27 0.26 0.25 0.32 0.33 0.35 0.20 0.20 0.20 0.20 0.19 0.17 0.15 0.19 0.19 0.15 0.15 0.18 0.25 0.25 0.20 0.22 0.27 0.27 0.28 0.29 0.29 0.28 0.31 0.32 0.32 0.30 0.28 0.31 0.35 0.37 0.40 0.41 0.41 0.42 0.41 0.41 0.43 0.71 0.72 0.88 0.91 0.96 0.96
0.77 0.75 0.74 0.71 0.67 0.65 0.66 0.67 0.67 0.67 0.67 0.66 0.66 0.66 0.64 0.64 0.64 0.62 0.60 0.57 0.56 0.54 0.53 0.53 0.49 0.49 0.48 0.46 0.51 0.56 0.52 0.44 0.35 0.47 0.50 0.44 0.38 0.31 0.30 0.26 0.26 0.24 0.28 0.32 0.25 0.24 0.21 0.18 0.18 0.17 0.15 0.16 0.18 0.19 0.16 0.15 0.15 0.21 0.25 0.25 0.22 0.25 0.26 0.28 0.27 0.26 0.24 0.28 0.29 0.28 0.25 0.26 0.33 0.33 0.32 0.36 0.36 0.39 0.41 0.42 0.43 0.45 0.68 0.73 0.78 0.85 0.87 0.87
0.76 0.74 0.73 0.71 0.66 0.66 0.67 0.68 0.67 0.68 0.67 0.67 0.67 0.67 0.66 0.65 0.64 0.63 0.59 0.57 0.56 0.54 0.52 0.53 0.52 0.48 0.50 0.49 0.49 0.49 0.46 0.22 0.41 0.41 0.47 0.42 0.37 0.30 0.29 0.27 0.25 0.26 0.31 0.31 0.26 0.24 0.20 0.19 0.13 0.15 0.16 0.13 0.15 0.16 0.19 0.18 0.19 0.14 0.18 0.23 0.24 0.24 0.22 0.23 0.24 0.26 0.27 0.27 0.27 0.29 0.30 0.29 0.32 0.32 0.32 0.34 0.36 0.40 0.46 0.44 0.46 0.47 0.46 0.83 0.83 0.76 0.81 0.80
0.76 0.72 0.71 0.69 0.67 0.67 0.68 0.68 0.68 0.68 0.68 0.68 0.68 0.68 0.67 0.66 0.63 0.62 0.59 0.57 0.56 0.55 0.53 0.54 0.54 0.53 0.49 0.49 0.50 0.42 0.36 0.37 0.39 0.46 0.38 0.37 0.31 0.30 0.28 0.28 0.26 0.29 0.32 0.28 0.26 0.23 0.24 0.20 0.18 0.14 0.16 0.17 0.15 0.15 0.18 0.20 0.21 0.17 0.16 0.19 0.18 0.18 0.18 0.21 0.22 0.23 0.25 0.25 0.25 0.29 0.32 0.30 0.28 0.29 0.36 0.36 0.36 0.43 0.47 0.46 0.44 0.47 0.47 0.74 0.81 0.68 0.73 0.74
0.77 0.72 0.69 0.69 0.68 0.68 0.68 0.68 0.68 0.68 0.67 0.68 0.68 0.68 0.67 0.65 0.62 0.60 0.58 0.56 0.55 0.54 0.55 0.55 0.55 0.53 0.54 0.47 0.46 0.49 0.52 0.36 0.44 0.48 0.32 0.35 0.30 0.31 0.31 0.31 0.33 0.35 0.32 0.28 0.23 0.22 0.22 0.16 0.18 0.20 0.16 0.15 0.17 0.16 0.17 0.18 0.21 0.19 0.17 0.16 0.15 0.18 0.20 0.21 0.20 0.18 0.20 0.21 0.27 0.34 0.31 0.29 0.30 0.31 0.36 0.35 0.36 0.37 0.44 0.46 0.43 0.45 0.47 0.69 0.87 0.84 0.75 0.67
0.78 0.74 0.69 0.70 0.70 0.69 0.67 0.68 0.68 0.67 0.68 0.69 0.69 0.67 0.66 0.63 0.60 0.59 0.57 0.55 0.54 0.54 0.54 0.55 0.55 0.53 0.58 0.52 0.42 0.47 0.35 0.42 0.47 0.47 0.45 0.30 0.30 0.34 0.38 0.37 0.45 0.31 0.28 0.25 0.23 0.17 0.17 0.17 0.20 0.18 0.14 0.14 0.19 0.17 0.18 0.16 0.15 0.16 0.14 0.15 0.16 0.16 0.16 0.17 0.18 0.17 0.18 0.20 0.24 0.29 0.30 0.32 0.32 0.36 0.34 0.33 0.35 0.39 0.40 0.42 0.39 0.36 0.43 0.65 0.75 0.70 0.74 0.76
0.80 0.78 0.72 0.71 0.71 0.69 0.68 0.67 0.67 0.67 0.68 0.69 0.69 0.67 0.64 0.62 0.58 0.58 0.56 0.54 0.54 0.54 0.53 0.56 0.57 0.60 0.55 0.51 0.55 0.53 0.41 0.46 0.47 0.51 0.49 0.40 0.41 0.42 0.42 0.42 0.48 0.40 0.28 0.28 0.27 0.16 0.19 0.21 0.22 0.22 0.17 0.14 0.16 0.14 0.16 0.15 0.13 0.16 0.16 0.16 0.15 0.16 0.15 0.15 0.14 0.14 0.15 0.17 0.21 0.23 0.26 0.30 0.31 0.32 0.27 0.32 0.35 0.37 0.33 0.30 0.37 0.36 0.36 0.46 0.66 0.71 0.79 0.87
0.81 0.81 0.77 0.72 0.70 0.69 0.67 0.66 0.66 0.68 0.68 0.69 0.69 0.67 0.63 0.60 0.58 0.58 0.57 0.54 0.55 0.54 0.54 0.54 0.59 0.55 0.50 0.53 0.48 0.39 0.44 0.43 0.43 0.44 0.39 0.39 0.37 0.37 0.38 0.39 0.32 0.27 0.25 0.26 0.22 0.22 0.23 0.22 0.21 0.20 0.16 0.13 0.17 0.16 0.13 0.12 0.13 0.14 0.15 0.14 0.16 0.16 0.16 0.16 0.15 0.14 0.15 0.15 0.18 0.20 0.22 0.26 0.28 0.26 0.24 0.28 0.33 0.36 0.35 0.37 0.35 0.30 0.31 0.31 0.76 0.79 0.81 0.77
0.82 0.81 0.80 0.75 0.71 0.68 0.65 0.63 0.64 0.68 0.69 0.70 0.69 0.66 0.63 0.60 0.58 0.59 0.58 0.55 0.53 0.55 0.54 0.54 0.55 0.53 0.50 0.47 0.50 0.36 0.39 0.40 0.39 0.43 0.43 0.39 0.36 0.37 0.36 0.37 0.37 0.30 0.29 0.28 0.29 0.30 0.28 0.24 0.22 0.18 0.15 0.20 0.16 0.15 0.14 0.15 0.15 0.16 0.16 0.13 0.13 0.14 0.11 0.11 0.11 0.12 0.13 0.13 0.15 0.18 0.17 0.17 0.18 0.17 0.17 0.21 0.32 0.33 0.33 0.31 0.29 0.31 0.33 0.34 0.64 0.70 0.78 0.78
0.83 0.81 0.78 0.77 0.72 0.68 0.65 0.62 0.62 0.65 0.68 0.70 0.70 0.66 0.62 0.60 0.59 0.59 0.59 0.56 0.54 0.56 0.56 0.56 0.56 0.59 0.55 0.48 0.38 0.43 0.41 0.44 0.41 0.41 0.37 0.41 0.41 0.42 0.42 0.38 0.34 0.31 0.30 0.28 0.28 0.31 0.30 0.28 0.22 0.17 0.19 0.18 0.17 0.13 0.18 0.18 0.18 0.17 0.16 0.14 0.11 0.11 0.11 0.11 0.13 0.13 0.13 0.12 0.13 0.14 0.10 0.11 0.12 0.13 0.16 0.20 0.20 0.29 0.28 0.27 0.28 0.31 0.35 0.31 0.49 0.71 0.74 0.73
0.82 0.80 0.77 0.76 0.72 0.68 0.65 0.61 0.60 0.63 0.66 0.70 0.69 0.66 0.62 0.60 0.59 0.59 0.58 0.57 0.55 0.53 0.55 0.55 0.57 0.54 0.54 0.50 0.46 0.47 0.44 0.42 0.42 0.44 0.42 0.41 0.36 0.38 0.40 0.40 0.36 0.33 0.32 0.29 0.28 0.30 0.29 0.28 0.22 0.19 0.21 0.18 0.16 0.20 0.16 0.15 0.15 0.12 0.13 0.13 0.10 0.10 0.09 0.12 0.13 0.15 0.13 0.15 0.15 0.14 0.09 0.09 0.11 0.13 0.16 0.18 0.19 0.18 0.20 0.21 0.24 0.26 0.27 0.28 0.31 0.49 0.71 0.67
0.80 0.78 0.76 0.76 0.73 0.68 0.65 0.60 0.59 0.61 0.66 0.69 0.68 0.66 0.63 0.58 0.59 0.57 0.59 0.54 0.55 0.56 0.56 0.58 0.57 0.54 0.51 0.56 0.52 0.49 0.48 0.52 0.45 0.44 0.45 0.41 0.36 0.37 0.38 0.40 0.36 0.34 0.33 0.32 0.30 0.32 0.31 0.26 0.24 0.21 0.18 0.21 0.19 0.14 0.11 0.10 0.10 0.11 0.10 0.09 0.10 0.09 0.10 0.11 0.12 0.14 0.13 0.15 0.16 0.15 0.10 0.09 0.10 0.12 0.15 0.19 0.19 0.19 0.18 0.20 0.22 0.23 0.22 0.23 0.29 0.55 0.50 0.59
0.78 0.76 0.75 0.74 0.72 0.69 0.65 0.58 0.58 0.61 0.66 0.69 0.68 0.65 0.64 0.63 0.59 0.59 0.58 0.54 0.55 0.58 0.57 0.53 0.59 0.56 0.48 0.47 0.47 0.51 0.46 0.40 0.44 0.42 0.45 0.45 0.43 0.36 0.43 0.37 0.37 0.36 0.36 0.35 0.32 0.31 0.33 0.29 0.23 0.23 0.22 0.24 0.21 0.16 0.13 0.12 0.11 0.13 0.11 0.10 0.11 0.12 0.11 0.11 0.12 0.13 0.14 0.14 0.15 0.15 0.11 0.12 0.12 0.14 0.13 0.15 0.17 0.19 0.18 0.19 0.21 0.21 0.22 0.25 0.28 0.35 0.62 0.55
0.75 0.74 0.74 0.73 0.71 0.69 0.64 0.57 0.57 0.61 0.66 0.70 0.69 0.66 0.64 0.63 0.62 0.61 0.58 0.58 0.59 0.66 0.58 0.45 0.60 0.62 0.43 0.50 0.52 0.41 0.37 0.42 0.46 0.41 0.47 0.43 0.47 0.39 0.42 0.39 0.36 0.36 0.39 0.39 0.35 0.34 0.32 0.27 0.28 0.23 0.22 0.19 0.21 0.20 0.15 0.13 0.13 0.16 0.16 0.12 0.13 0.13 0.11 0.10 0.10 0.12 0.13 0.14 0.13 0.15 0.14 0.14 0.15 0.15 0.14 0.12 0.14 0.17 0.19 0.18 0.20 0.22 0.22 0.27 0.29 0.30 0.33 0.39
0.73 0.73 0.73 0.73 0.71 0.68 0.64 0.57 0.57 0.61 0.67 0.72 0.68 0.67 0.70 0.69 0.71 0.64 0.57 0.55 0.60 0.61 0.67 0.67 0.58 0.53 0.48 0.51 0.38 0.35 0.41 0.40 0.44 0.43 0.39 0.40 0.44 0.44 0.41 0.37 0.37 0.39 0.39 0.35 0.37 0.32 0.34 0.28 0.29 0.24 0.26 0.23 0.18 0.17 0.15 0.13 0.14 0.15 0.16 0.15 0.14 0.14 0.14 0.12 0.12 0.11 0.13 0.14 0.14 0.15 0.14 0.15 0.14 0.14 0.15 0.14 0.14 0.15 0.19 0.20 0.20 0.22 0.24 0.26 0.28 0.27 0.29 0.34
0.73 0.71 0.72 0.72 0.71 0.67 0.63 0.58 0.57 0.63 0.71 0.74 0.72 0.79 0.87 0.82 0.71 0.70 0.56 0.61 0.50 0.52 0.48 0.45 0.35 0.34 0.25 0.39 0.38 0.43 0.41 0.43 0.42 0.43 0.43 0.47 0.44 0.46 0.46 0.47 0.43 0.39 0.35 0.31 0.33 0.34 0.35 0.29 0.28 0.26 0.22 0.24 0.24 0.23 0.22 0.23 0.24 0.22 0.21 0.19 0.18 0.16 0.14 0.12 0.12 0.13 0.14 0.14 0.13 0.15 0.16 0.14 0.14 0.16 0.15 0.15 0.15 0.15 0.17 0.22 0.22 0.23 0.26 0.26 0.27 0.30 0.29 0.31
0.73 0.71 0.72 0.73 0.72 0.68 0.64 0.59 0.59 0.63 0.74 0.74 0.75 0.82 0.86 0.75 0.54 0.59 0.58 0.60 0.55 0.54 0.41 0.39 0.41 0.38 0.37 0.35 0.38 0.42 0.39 0.42 0.39 0.48 0.47 0.54 0.46 0.44 0.45 0.47 0.44 0.41 0.33 0.29 0.33 0.35 0.36 0.29 0.26 0.27 0.29 0.26 0.26 0.28 0.30 0.28 0.25 0.22 0.19 0.16 0.16 0.17 0.16 0.13 0.12 0.13 0.13 0.13 0.13 0.12 0.15 0.17 0.15 0.15 0.16 0.15 0.16 0.15 0.17 0.18 0.22 0.24 0.24 0.27 0.27 0.32 0.35 0.32
0.73 0.70 0.73 0.75 0.73 0.69 0.64 0.61 0.62 0.66 0.74 0.77 0.77 0.72 0.54 0.49 0.46 0.50 0.55 0.51 0.59 0.44 0.41 0.40 0.40 0.33 0.29 0.36 0.41 0.38 0.32 0.40 0.39 0.42 0.45 0.54 0.47 0.43 0.42 0.41 0.40 0.33 0.38 0.38 0.35 0.40 0.36 0.30 0.29 0.29 0.27 0.32 0.32 0.34 0.31 0.26 0.22 0.19 0.17 0.15 0.15 0.15 0.12 0.13 0.13 0.14 0.12 0.11 0.12 0.14 0.13 0.14 0.16 0.17 0.16 0.15 0.15 0.15 0.16 0.18 0.17 0.21 0.23 0.26 0.27 0.30 0.32 0.32
0.72 0.69 0.72 0.76 0.75 0.70 0.65 0.63 0.64 0.71 0.75 0.79 0.79 0.70 0.62 0.54 0.55 0.55 0.49 0.38 0.42 0.46 0.43 0.39 0.41 0.37 0.38 0.43 0.41 0.41 0.39 0.34 0.41 0.47 0.52 0.52 0.44 0.37 0.43 0.40 0.40 0.34 0.39 0.39 0.39 0.36 0.32 0.27 0.27 0.29 0.30 0.31 0.36 0.30 0.26 0.24 0.20 0.17 0.15 0.15 0.15 0.14 0.15 0.17 0.15 0.16 0.15 0.14 0.12 0.12 0.13 0.14 0.15 0.15 0.16 0.15 0.13 0.15 0.17 0.18 0.22 0.24 0.23 0.24 0.27 0.29 0.31 0.33
0.73 0.69 0.71 0.76 0.75 0.72 0.68 0.67 0.67 0.74 0.74 0.73 0.77 0.68 0.59 0.65 0.65 0.61 0.51 0.41 0.41 0.54 0.45 0.45 0.36 0.35 0.36 0.38 0.44 0.37 0.34 0.37 0.37 0.43 0.49 0.49 0.40 0.39 0.43 0.41 0.39 0.39 0.38 0.39 0.33 0.35 0.31 0.32 0.36 0.38 0.34 0.30 0.30 0.25 0.23 0.23 0.22 0.19 0.18 0.18 0.18 0.21 0.18 0.18 0.18 0.18 0.19 0.15 0.13 0.15 0.14 0.15 0.16 0.17 0.16 0.17 0.16 0.15 0.18 0.19 0.19 0.24 0.25 0.24 0.26 0.30 0.31 0.31
0.73 0.69 0.71 0.75 0.78 0.72 0.74 0.74 0.73 0.73 0.73 0.73 0.74 0.62 0.69 0.71 0.64 0.63 0.47 0.36 0.37 0.46 0.46 0.38 0.33 0.29 0.34 0.30 0.40 0.35 0.36 0.39 0.39 0.40 0.49 0.44 0.36 0.41 0.37 0.36 0.34 0.34 0.35 0.39 0.37 0.32 0.32 0.40 0.37 0.36 0.34 0.29 0.27 0.25 0.22 0.21 0.21 0.26 0.27 0.22 0.20 0.21 0.20 0.18 0.19 0.20 0.22 0.20 0.17 0.16 0.16 0.16 0.16 0.16 0.16 0.15 0.14 0.17 0.16 0.15 0.17 0.26 0.29 0.28 0.26 0.29 0.30 0.31
0.74 0.69 0.72 0.76 0.77 0.76 0.74 0.81 0.71 0.73 0.73 0.79 0.77 0.72 0.73 0.70 0.67 0.61 0.44 0.37 0.43 0.45 0.52 0.42 0.37 0.38 0.42 0.52 0.51 0.36 0.40 0.40 0.46 0.42 0.45 0.44 0.40 0.38 0.37 0.38 0.35 0.33 0.32 0.35 0.33 0.32 0.32 0.38 0.32 0.31 0.34 0.33 0.28 0.25 0.24 0.25 0.24 0.22 0.25 0.24 0.22 0.23 0.19 0.19 0.19 0.19 0.20 0.19 0.19 0.17 0.13 0.13 0.15 0.16 0.17 0.17 0.16 0.17 0.17 0.18 0.20 0.23 0.25 0.28 0.27 0.28 0.29 0.31
0.73 0.70 0.74 0.76 0.79 0.77 0.74 0.76 0.68 0.67 0.74 0.74 0.76 0.75 0.72 0.70 0.69 0.63 0.47 0.38 0.34 0.40 0.43 0.30 0.43 0.35 0.47 0.41 0.40 0.38 0.36 0.36 0.52 0.47 0.47 0.47 0.46 0.36 0.35 0.36 0.38 0.31 0.33 0.32 0.35 0.29 0.28 0.33 0.29 0.29 0.29 0.28 0.28 0.27 0.29 0.27 0.23 0.21 0.24 0.25 0.25 0.24 0.20 0.18 0.19 0.19 0.16 0.14 0.20 0.21 0.14 0.12 0.16 0.17 0.18 0.18 0.17 0.16 0.15 0.19 0.21 0.23 0.25 0.28 0.29 0.31 0.31 0.30
0.73 0.71 0.75 0.77 0.80 0.81 0.61 0.63 0.69 0.73 0.68 0.75 0.81 0.74 0.71 0.69 0.71 0.61 0.44 0.38 0.32 0.41 0.35 0.37 0.34 0.39 0.40 0.36 0.38 0.37 0.27 0.31 0.42 0.46 0.49 0.54 0.44 0.47 0.32 0.32 0.37 0.40 0.39 0.38 0.29 0.26 0.33 0.32 0.29 0.28 0.28 0.27 0.25 0.22 0.30 0.28 0.24 0.20 0.27 0.28 0.26 0.26 0.22 0.19 0.20 0.19 0.18 0.19 0.20 0.21 0.19 0.13 0.14 0.19 0.21 0.18 0.16 0.16 0.18 0.19 0.20 0.23 0.28 0.30 0.32 0.31 0.30 0.33
0.73 0.72 0.75 0.78 0.81 0.81 0.68 0.69 0.63 0.68 0.67 0.74 0.75 0.72 0.71 0.72 0.65 0.70 0.53 0.27 0.26 0.45 0.37 0.38 0.40 0.47 0.38 0.39 0.41 0.37 0.32 0.41 0.33 0.46 0.49 0.51 0.47 0.43 0.36 0.35 0.35 0.41 0.43 0.36 0.23 0.37 0.34 0.30 0.28 0.26 0.26 0.24 0.24 0.30 0.29 0.29 0.24 0.23 0.28 0.28 0.25 0.22 0.25 0.25 0.20 0.17 0.18 0.19 0.17 0.19 0.22 0.16 0.14 0.18 0.24 0.22 0.17 0.17 0.17 0.19 0.21 0.26 0.28 0.28 0.28 0.28 0.31 0.36
0.72 0.73 0.75 0.79 0.82 0.79 0.79 0.73 0.68 0.68 0.71 0.74 0.75 0.75 0.73 0.72 0.60 0.52 0.42 0.23 0.42 0.31 0.48 0.36 0.51 0.48 0.38 0.41 0.38 0.40 0.38 0.40 0.33 0.41 0.46 0.50 0.53 0.40 0.32 0.37 0.37 0.33 0.32 0.31 0.27 0.31 0.32 0.28 0.29 0.29 0.25 0.29 0.33 0.31 0.32 0.31 0.26 0.29 0.30 0.30 0.27 0.25 0.25 0.25 0.23 0.20 0.18 0.19 0.17 0.19 0.22 0.16 0.15 0.25 0.25 0.20 0.20 0.17 0.18 0.18 0.19 0.24 0.24 0.25 0.26 0.28 0.33 0.37
0.72 0.74 0.77 0.81 0.80 0.84 0.84 0.90 0.83 0.74 0.78 0.76 0.75 0.71 0.72 0.66 0.66 0.47 0.31 0.20 0.43 0.28 0.38 0.35 0.34 0.30 0.34 0.33 0.33 0.41 0.35 0.37 0.41 0.43 0.43 0.45 0.46 0.51 0.48 0.51 0.43 0.36 0.30 0.35 0.38 0.41 0.33 0.34 0.31 0.21 0.25 0.28 0.28 0.28 0.28 0.30 0.31 0.32 0.32 0.29 0.25 0.24 0.25 0.25 0.23 0.23 0.20 0.17 0.19 0.20 0.21 0.17 0.19 0.25 0.27 0.29 0.28 0.30 0.24 0.20 0.19 0.19 0.36 0.45 0.48 0.48 0.63 0.79
0.72 0.74 0.78 0.83 0.74 0.84 0.80 0.77 0.87 0.92 0.84 0.77 0.75 0.66 0.68 0.71 0.48 0.32 0.22 0.34 0.35 0.34 0.32 0.37 0.32 0.34 0.34 0.32 0.30 0.41 0.37 0.38 0.41 0.40 0.38 0.43 0.44 0.49 0.48 0.43 0.48 0.41 0.39 0.39 0.34 0.40 0.39 0.35 0.36 0.31 0.27 0.25 0.25 0.26 0.34 0.32 0.30 0.28 0.29 0.28 0.25 0.21 0.25 0.23 0.22 0.24 0.17 0.16 0.21 0.23 0.23 0.23 0.17 0.24 0.28 0.31 0.37 0.33 0.29 0.25 0.24 0.30 0.49 0.45 0.48 0.52 0.58 0.68
0.72 0.75 0.79 0.81 0.83 0.85 0.68 0.76 0.84 0.87 0.78 0.78 0.66 0.61 0.68 0.43 0.43 0.28 0.25 0.41 0.22 0.35 0.30 0.25 0.30 0.31 0.33 0.37 0.35 0.37 0.33 0.38 0.40 0.36 0.34 0.38 0.39 0.40 0.43 0.31 0.39 0.27 0.29 0.33 0.33 0.39 0.32 0.32 0.37 0.34 0.33 0.25 0.25 0.22 0.29 0.27 0.29 0.27 0.25 0.27 0.23 0.20 0.20 0.20 0.20 0.18 0.16 0.17 0.22 0.23 0.24 0.21 0.22 0.30 0.35 0.37 0.40 0.40 0.38 0.44 0.44 0.44 0.46 0.50 0.52 0.52 0.57 0.64
0.73 0.74 0.80 0.83 0.84 0.78 0.77 0.84 0.87 0.78 0.78 0.73 0.58 0.72 0.57 0.35 0.22 0.31 0.30 0.29 0.29 0.34 0.28 0.33 0.30 0.29 0.36 0.34 0.35 0.35 0.39 0.36 0.43 0.38 0.37 0.40 0.37 0.40 0.44 0.41 0.41 0.35 0.25 0.37 0.34 0.32 0.31 0.36 0.36 0.35 0.33 0.38 0.23 0.21 0.24 0.25 0.26 0.26 0.24 0.25 0.21 0.19 0.19 0.17 0.20 0.21 0.21 0.23 0.24 0.21 0.23 0.22 0.28 0.32 0.40 0.40 0.44 0.46 0.45 0.46 0.48 0.47 0.47 0.50 0.52 0.56 0.60 0.63
0.72 0.76 0.74 0.89 0.85 0.81 0.88 0.88 0.80 0.83 0.73 0.67 0.66 0.64 0.51 0.30 0.25 0.37 0.30 0.31 0.31 0.33 0.34 0.33 0.28 0.35 0.40 0.31 0.34 0.39 0.32 0.41 0.40 0.39 0.42 0.36 0.38 0.36 0.39 0.42 0.43 0.37 0.35 0.34 0.30 0.31 0.25 0.27 0.33 0.35 0.30 0.39 0.29 0.30 0.26 0.21 0.23 0.26 0.30 0.28 0.26 0.23 0.21 0.17 0.18 0.16 0.18 0.20 0.23 0.23 0.19 0.19 0.23 0.26 0.40 0.42 0.49 0.50 0.51 0.52 0.53 0.55 0.54 0.54 0.58 0.59 0.61 0.61
0.74 0.78 0.82 0.84 0.86 0.87 0.85 0.83 0.81 0.85 0.71 0.60 0.66 0.54 0.33 0.30 0.30 0.31 0.30 0.32 0.35 0.31 0.31 0.34 0.30 0.33 0.35 0.37 0.40 0.43 0.40 0.35 0.43 0.40 0.41 0.37 0.35 0.36 0.35 0.37 0.42 0.39 0.37 0.28 0.39 0.33 0.27 0.25 0.33 0.35 0.35 0.31 0.30 0.34 0.28 0.32 0.24 0.29 0.30 0.28 0.25 0.24 0.27 0.19 0.19 0.20 0.20 0.21 0.19 0.18 0.20 0.24 0.28 0.37 0.40 0.44 0.45 0.49 0.52 0.51 0.53 0.53 0.55 0.55 0.56 0.57 0.58 0.60
0.73 0.86 0.91 0.91 0.91 0.96 0.93 0.84 0.85 0.81 0.65 0.60 0.55 0.44 0.34 0.35 0.29 0.34 0.34 0.35 0.33 0.25 0.29 0.29 0.34 0.33 0.34 0.34 0.39 0.39 0.51 0.36 0.44 0.41 0.40 0.40 0.40 0.37 0.40 0.42 0.40 0.41 0.37 0.31 0.36 0.28 0.34 0.29 0.40 0.38 0.38 0.34 0.34 0.32 0.31 0.31 0.17 0.24 0.23 0.23 0.27 0.33 0.30 0.24 0.20 0.21 0.21 0.21 0.18 0.21 0.21 0.27 0.32 0.33 0.35 0.37 0.41 0.43 0.47 0.50 0.52 0.53 0.56 0.57 0.56 0.59 0.58 0.60
0.65 0.81 0.82 0.93 0.92 0.91 0.85 0.82 0.83 0.74 0.67 0.64 0.51 0.38 0.37 0.34 0.39 0.34 0.37 0.32 0.24 0.23 0.32 0.24 0.29 0.27 0.27 0.27 0.33 0.37 0.41 0.44 0.43 0.40 0.35 0.43 0.40 0.40 0.40 0.43 0.49 0.45 0.44 0.39 0.32 0.44 0.33 0.32 0.39 0.35 0.35 0.40 0.41 0.36 0.31 0.32 0.33 0.28 0.22 0.27 0.32 0.31 0.28 0.22 0.18 0.18 0.18 0.17 0.17 0.20 0.20 0.23 0.24 0.24 0.36 0.37 0.41 0.45 0.47 0.49 0.52 0.53 0.56 0.56 0.58 0.60 0.63 0.63
0.68 0.76 0.88 0.92 0.83 0.87 0.85 0.82 0.77 0.72 0.65 0.59 0.47 0.42 0.41 0.33 0.43 0.39 0.38 0.34 0.35 0.37 0.31 0.31 0.26 0.31 0.29 0.32 0.31 0.36 0.41 0.37 0.40 0.41 0.36 0.41 0.33 0.47 0.43 0.41 0.51 0.47 0.47 0.47 0.34 0.41 0.43 0.29 0.35 0.41 0.41 0.41 0.43 0.35 0.30 0.38 0.35 0.28 0.29 0.34 0.24 0.22 0.15 0.18 0.20 0.16 0.15 0.16 0.16 0.16 0.22 0.23 0.23 0.28 0.38 0.36 0.40 0.42 0.46 0.49 0.51 0.51 0.55 0.58 0.61 0.64 0.66 0.68
0.74 0.80 0.77 0.90 0.96 0.92 0.86 0.84 0.71 0.61 0.58 0.51 0.47 0.41 0.41 0.38 0.43 0.36 0.35 0.27 0.30 0.33 0.28 0.36 0.27 0.31 0.31 0.33 0.36 0.40 0.40 0.33 0.40 0.40 0.34 0.43 0.34 0.49 0.46 0.45 0.44 0.52 0.51 0.48 0.42 0.48 0.46 0.30 0.34 0.45 0.42 0.46 0.41 0.36 0.24 0.28 0.32 0.32 0.34 0.26 0.32 0.29 0.22 0.20 0.21 0.22 0.19 0.16 0.17 0.15 0.20 0.21 0.35 0.36 0.39 0.39 0.43 0.46 0.48 0.49 0.50 0.50 0.55 0.58 0.61 0.61 0.59 0.59
0.72 0.72 0.71 0.96 0.99 0.90 0.86 0.78 0.66 0.62 0.56 0.44 0.43 0.40 0.45 0.40 0.42 0.42 0.40 0.32 0.36 0.32 0.37 0.30 0.39 0.31 0.31 0.36 0.39 0.36 0.39 0.38 0.40 0.40 0.38 0.47 0.40 0.56 0.46 0.49 0.43 0.50 0.52 0.56 0.48 0.54 0.39 0.44 0.27 0.40 0.45 0.47 0.36 0.38 0.31 0.32 0.28 0.30 0.26 0.30 0.28 0.32 0.37 0.30 0.27 0.23 0.19 0.17 0.17 0.16 0.18 0.25 0.36 0.44 0.43 0.45 0.48 0.50 0.50 0.50 0.52 0.55 0.57 0.58 0.59 0.59 0.58 0.57
0.75 0.70 0.74 0.96 0.89 0.84 0.82 0.67 0.61 0.56 0.52 0.53 0.48 0.41 0.43 0.41 0.39 0.41 0.39 0.31 0.37 0.44 0.34 0.37 0.37 0.33 0.37 0.36 0.38 0.43 0.39 0.38 0.42 0.42 0.42 0.44 0.46 0.36 0.54 0.47 0.48 0.48 0.55 0.53 0.50 0.51 0.40 0.41 0.32 0.36 0.37 0.36 0.36 0.45 0.43 0.41 0.39 0.35 0.32 0.30 0.31 0.31 0.27 0.22 0.20 0.23 0.22 0.19 0.16 0.15 0.20 0.29 0.44 0.52 0.53 0.53 0.56 0.57 0.54 0.54 0.53 0.55 0.58 0.58 0.57 0.58 0.56 0.57
0.64 0.59 0.69 0.86 0.82 0.70 0.66 0.55 0.59 0.60 0.46 0.41 0.43 0.48 0.48 0.48 0.39 0.42 0.33 0.38 0.31 0.35 0.44 0.38 0.44 0.39 0.41 0.41 0.42 0.41 0.41 0.34 0.40 0.40 0.43 0.38 0.49 0.45 0.50 0.53 0.52 0.55 0.51 0.47 0.46 0.56 0.51 0.45 0.40 0.34 0.37 0.37 0.41 0.43 0.43 0.43 0.41 0.41 0.37 0.37 0.39 0.38 0.38 0.30 0.23 0.24 0.25 0.24 0.20 0.21 0.20 0.26 0.50 0.53 0.51 0.52 0.54 0.54 0.55 0.55 0.51 0.52 0.54 0.52 0.52 0.54 0.55 0.56
0.63 0.56 0.84 0.93 0.82 0.73 0.62 0.55 0.59 0.51 0.45 0.47 0.48 0.49 0.51 0.45 0.37 0.36 0.34 0.39 0.32 0.41 0.34 0.37 0.40 0.37 0.45 0.41 0.42 0.41 0.44 0.36 0.38 0.40 0.41 0.43 0.47 0.50 0.53 0.53 0.52 0.57 0.51 0.52 0.49 0.57 0.58 0.44 0.36 0.39 0.46 0.48 0.49 0.49 0.50 0.43 0.38 0.38 0.39 0.44 0.39 0.34 0.36 0.33 0.33 0.33 0.28 0.28 0.20 0.21 0.19 0.29 0.48 0.56 0.53 0.54 0.54 0.54 0.54 0.52 0.48 0.49 0.49 0.50 0.49 0.51 0.51 0.52
0.57 0.64 0.77 0.91 0.86 0.71 0.54 0.47 0.48 0.50 0.48 0.51 0.51 0.47 0.50 0.42 0.39 0.38 0.36 0.37 0.32 0.36 0.37 0.37 0.39 0.44 0.39 0.48 0.45 0.40 0.47 0.32 0.41 0.43 0.42 0.45 0.46 0.56 0.54 0.52 0.51 0.48 0.46 0.46 0.41 0.54 0.43 0.46 0.41 0.33 0.33 0.36 0.38 0.42 0.44 0.47 0.40 0.33 0.34 0.37 0.36 0.36 0.37 0.36 0.36 0.38 0.26 0.32 0.31 0.22 0.19 0.28 0.48 0.55 0.53 0.51 0.51 0.51 0.50 0.51 0.50 0.46 0.48 0.48 0.49 0.50 0.52 0.53
0.63 0.76 0.75 0.79 0.81 0.75 0.54 0.59 0.55 0.51 0.51 0.49 0.48 0.44 0.46 0.46 0.37 0.31 0.30 0.33 0.36 0.31 0.35 0.38 0.37 0.40 0.40 0.46 0.43 0.45 0.46 0.43 0.38 0.47 0.46 0.45 0.46 0.55 0.54 0.50 0.50 0.45 0.48 0.52 0.52 0.60 0.48 0.44 0.40 0.30 0.26 0.23 0.23 0.25 0.27 0.30 0.35 0.37 0.35 0.34 0.34 0.31 0.33 0.31 0.26 0.31 0.25 0.33 0.35 0.28 0.26 0.38 0.49 0.50 0.49 0.51 0.50 0.49 0.51 0.50 0.50 0.51 0.48 0.48 0.48 0.50 0.50 0.52
0.59 0.52 0.61 0.58 0.74 0.67 0.65 0.69 0.58 0.52 0.48 0.49 0.45 0.43 0.43 0.36 0.40 0.42 0.31 0.27 0.34 0.35 0.34 0.35 0.39 0.42 0.39 0.42 0.39 0.39 0.40 0.47 0.42 0.42 0.44 0.43 0.46 0.51 0.52 0.52 0.49 0.46 0.49 0.53 0.57 0.55 0.46 0.49 0.43 0.40 0.34 0.31 0.33 0.37 0.43 0.42 0.38 0.32 0.32 0.32 0.31 0.34 0.35 0.34 0.33 0.31 0.27 0.32 0.33 0.34 0.35 0.36 0.39 0.43 0.44 0.48 0.48 0.46 0.48 0.50 0.50 0.49 0.49 0.50 0.51 0.51 0.52 0.53
0.66 0.57 0.57 0.52 0.56 0.58 0.60 0.61 0.56 0.56 0.50 0.55 0.43 0.45 0.39 0.36 0.37 0.37 0.40 0.30 0.41 0.35 0.34 0.39 0.39 0.36 0.39 0.39 0.37 0.35 0.39 0.39 0.47 0.45 0.44 0.44 0.47 0.49 0.54 0.51 0.51 0.50 0.50 0.55 0.55 0.53 0.49 0.43 0.43 0.43 0.40 0.40 0.42 0.40 0.43 0.42 0.36 0.36 0.34 0.31 0.33 0.33 0.34 0.31 0.27 0.28 0.37 0.32 0.27 0.35 0.37 0.34 0.38 0.41 0.44 0.45 0.46 0.47 0.49 0.50 0.51 0.51 0.49 0.49 0.50 0.52 0.53 0.54
0.52 0.58 0.63 0.73 0.53 0.46 0.49 0.51 0.58 0.56 0.58 0.58 0.49 0.50 0.40 0.32 0.33 0.31 0.41 0.44 0.33 0.33 0.26 0.36 0.38 0.41 0.40 0.39 0.39 0.32 0.36 0.35 0.42 0.38 0.46 0.47 0.45 0.47 0.47 0.51 0.48 0.48 0.49 0.48 0.54 0.48 0.46 0.40 0.43 0.43 0.39 0.42 0.43 0.43 0.43 0.41 0.39 0.38 0.37 0.36 0.32 0.33 0.33 0.29 0.30 0.33 0.34 0.28 0.27 0.34 0.37 0.35 0.37 0.40 0.44 0.46 0.47 0.47 0.49 0.50 0.52 0.53 0.52 0.53 0.52 0.52 0.52 0.52
0.61 0.60 0.63 0.74 0.53 0.55 0.56 0.55 0.54 0.54 0.51 0.54 0.51 0.49 0.41 0.32 0.30 0.35 0.37 0.38 0.37 0.33 0.32 0.23 0.28 0.39 0.42 0.43 0.41 0.35 0.39 0.32 0.34 0.41 0.44 0.42 0.44 0.42 0.41 0.44 0.45 0.45 0.44 0.45 0.47 0.49 0.50 0.40 0.43 0.43 0.40 0.41 0.42 0.43 0.44 0.41 0.40 0.39 0.38 0.38 0.39 0.37 0.34 0.33 0.32 0.33 0.31 0.29 0.33 0.35 0.38 0.38 0.41 0.43 0.48 0.51 0.54 0.54 0.55 0.58 0.57 0.55 0.55 0.56 0.56 0.56 0.55 0.55
0.51 0.50 0.57 0.61 0.59 0.60 0.61 0.58 0.54 0.54 0.51 0.56 0.44 0.42 0.37 0.33 0.33 0.38 0.44 0.39 0.26 0.28 0.38 0.32 0.36 0.40 0.43 0.43 0.42 0.37 0.43 0.43 0.42 0.38 0.47 0.43 0.43 0.44 0.39 0.40 0.36 0.41 0.42 0.42 0.41 0.45 0.43 0.38 0.44 0.42 0.38 0.39 0.42 0.45 0.44 0.43 0.41 0.37 0.38 0.39 0.41 0.40 0.39 0.38 0.36 0.36 0.36 0.30 0.34 0.35 0.35 0.36 0.45 0.51 0.52 0.56 0.58 0.59 0.60 0.57 0.56 0.60 0.61 0.62 0.61 0.61 0.60 0.60
0.67 0.63 0.69 0.61 0.53 0.61 0.58 0.55 0.55 0.53 0.51 0.53 0.46 0.42 0.36 0.33 0.32 0.40 0.40 0.43 0.34 0.27 0.34 0.37 0.41 0.42 0.45 0.43 0.42 0.43 0.49 0.48 0.44 0.47 0.48 0.46 0.38 0.43 0.38 0.39 0.41 0.36 0.38 0.39 0.39 0.41 0.45 0.38 0.46 0.41 0.36 0.34 0.41 0.42 0.43 0.44 0.43 0.40 0.36 0.38 0.40 0.39 0.36 0.37 0.36 0.40 0.36 0.31 0.36 0.36 0.34 0.36 0.46 0.53 0.55 0.57 0.57 0.55 0.54 0.54 0.56 0.59 0.63 0.65 0.64 0.63 0.64 0.64
0.72 0.75 0.79 0.73 0.53 0.57 0.52 0.56 0.55 0.52 0.44 0.54 0.50 0.47 0.36 0.34 0.40 0.40 0.29 0.34 0.37 0.32 0.33 0.37 0.44 0.42 0.43 0.43 0.42 0.46 0.51 0.46 0.47 0.53 0.54 0.50 0.48 0.45 0.47 0.43 0.41 0.37 0.35 0.36 0.41 0.38 0.40 0.41 0.39 0.39 0.34 0.34 0.41 0.42 0.41 0.42 0.40 0.34 0.32 0.36 0.40 0.40 0.41 0.41 0.43 0.44 0.43 0.42 0.38 0.35 0.36 0.46 0.50 0.53 0.50 0.51 0.53 0.54 0.53 0.52 0.56 0.60 0.65 0.67 0.65 0.65 0.66 0.67
Wind_Speed
19 19 18 17 17 17 17 16 16 16 16 16 16 16 17 17 17 17 17 17 17 17 16 16 16 16 16 16 16 16 17 16 16 17 16 14 14 14 15 14 15 15 15 16 18 19 19 18 20 21 21 22 24 25 26 27 26 26 26 28 29 29 28 27 26 24 23 22 21 22 23 22 21 20 20 21 23 23 22 22 22 19 18 17 16 15 15 16
19 19 19 18 18 18 17 17 17 16 16 16 16 16 17 17 17 17 17 17 17 17 17 17 16 16 16 16 16 16 17 17 18 17 14 13 14 14 14 14 15 15 15 17 18 18 17 18 19 20 21 22 23 24 26 27 27 27 26 28 30 30 29 27 26 26 25 24 22 21 22 23 23 21 20 21 23 24 23 22 22 19 18 18 17 16 15 17
20 19 19 19 19 18 18 17 17 17 17 17 17 17 17 17 17 18 17 17 17 17 17 17 17 16 16 16 16 17 17 17 18 14 11 12 13 13 14 15 15 15 15 16 18 17 16 18 18 19 21 22 23 24 25 26 27 28 28 29 30 29 30 29 28 28 27 26 26 24 22 23 23 22 22 22 22 24 24 22 22 20 19 19 19 18 16 18
20 20 19 19 19 19 18 18 18 17 17 17 17 17 18 18 18 18 17 17 17 17 17 17 17 17 16 16 17 16 17 17 14 10 10 12 13 13 14 14 15 15 15 17 17 16 16 17 17 18 20 21 22 24 25 25 26 27 29 31 30 28 28 29 30 31 30 28 28 28 27 26 24 23 24 24 22 22 23 23 23 22 22 22 21 20 18 18
20 20 20 19 19 19 19 18 18 18 18 18 18 18 18 18 18 18 17 17 17 17 17 17 17 17 17 16 16 16 16 15 11 11 13 14 14 14 14 14 15 15 16 17 17 16 16 17 17 18 19 20 21 22 23 25 26 26 28 30 30 30 29 29 30 31 31 30 31 30 29 28 26 24 24 25 25 23 21 21 22 22 23 24 24 22 20 20
21 20 20 20 20 20 19 19 19 19 18 18 18 19 18 18 18 18 17 17 17 17 17 17 17 17 17 16 16 15 15 14 11 12 14 14 15 14 14 14 14 14 15 16 16 15 16 17 17 18 18 19 20 21 22 23 25 27 28 29 30 31 31 30 30 30 29 29 30 31 29 29 30 27 23 24 26 26 22 20 21 23 23 25 27 23 22 23
21 21 20 20 20 20 20 19 19 19 19 19 19 19 19 18 18 18 17 17 17 17 17 17 17 17 16 16 15 14 16 14 11 12 14 14 14 13 13 14 13 14 15 16 15 15 16 16 17 17 18 18 19 21 22 23 24 26 27 28 29 30 30 30 31 32 32 31 29 30 29 29 32 31 26 25 26 27 26 22 20 22 22 24 27 25 25 25
21 21 21 21 21 21 21 20 20 20 19 19 19 19 19 18 18 18 17 17 17 17 16 17 16 16 16 15 15 15 15 13 11 13 14 13 13 13 13 13 14 15 16 15 15 16 16 16 17 16 17 17 17 19 20 21 22 24 25 26 27 28 28 28 29 31 33 33 31 30 30 29 31 31 30 29 26 26 29 27 22 21 21 23 26 26 26 26
21 21 21 21 22 22 21 20 20 20 20 20 19 19 19 19 18 17 17 16 16 16 16 16 16 16 15 14 15 15 13 12 13 13 13 13 13 13 14 14 15 15 15 15 15 15 15 15 16 16 16 18 18 19 19 19 20 21 23 25 26 26 28 28 29 30 31 32 32 32 33 31 30 30 32 33 29 27 29 31 26 23 23 23 25 26 24 25
21 22 22 22 22 22 22 21 20 20 20 20 20 20 20 19 18 17 16 16 15 15 16 16 16 15 14 14 15 15 13 13 14 13 13 13 13 13 14 15 15 15 15 15 15 15 16 16 16 16 16 18 18 18 19 20 19 20 21 22 24 25 25 26 27 28 29 30 31 33 34 34 32 31 32 33 30 28 27 28 28 26 26 24 25 26 24 23
22 22 22 22 23 23 22 21 21 20 20 20 20 20 20 19 17 16 15 15 15 15 15 16 15 15 14 15 16 14 13 14 14 13 13 13 13 14 14 14 14 15 15 16 15 16 16 16 16 16 15 15 16 17 18 20 20 21 22 22 24 25 25 26 27 27 27 28 30 32 34 35 35 34 36 35 31 29 28 29 30 29 28 25 26 28 25 24
22 22 22 23 23 23 23 22 21 21 20 21 21 20 19 18 16 15 15 15 15 15 15 15 15 15 15 16 15 13 14 14 14 14 13 13 13 13 14 14 15 15 16 16 16 15 15 16 16 16 15 15 15 15 15 16 18 20 21 22 23 24 25 26 27 28 27 27 28 29 31 34 36 38 41 39 35 33 32 32 32 31 29 27 27 29 28 26
22 23 23 23 23 23 23 22 22 21 21 21 21 20 19 17 16 15 15 15 14 15 15 15 15 15 15 15 12 13 15 14 13 13 12 13 13 14 15 15 15 16 16 16 16 15 15 15 16 17 17 17 16 15 15 16 18 18 19 20 20 21 22 24 25 26 27 27 27 27 29 32 35 39 40 39 39 38 37 36 34 33 31 29 29 31 31 30
22 23 23 23 23 23 23 23 22 22 21 21 21 20 19 17 16 15 15 15 14 15 15 15 15 14 14 13 11 13 15 13 11 11 11 13 14 16 16 15 15 16 15 16 16 16 15 15 16 16 17 17 17 17 17 17 17 17 18 18 18 19 19 20 21 23 25 25 27 27 29 31 32 34 35 36 39 41 41 40 38 37 35 33 31 32 33 32
23 23 23 23 23 23 24 23 22 22 21 21 21 20 18 17 16 15 15 14 14 15 15 14 14 13 14 13 11 12 13 11 10 10 12 14 15 16 15 14 15 15 14 15 15 15 15 15 15 16 16 17 17 17 16 16 16 16 17 17 17 18 18 18 18 20 22 22 25 27 29 30 30 31 31 33 36 39 41 41 40 40 38 37 34 32 33 33
23 24 24 23 23 23 24 24 23 22 22 21 21 20 18 16 15 15 15 14 14 14 14 14 12 12 14 13 10 11 11 10 10 12 14 14 13 15 15 14 15 15 14 14 14 14 14 15 15 15 16 16 16 16 15 15 16 15 16 16 16 16 17 17 17 18 19 20 22 27 28 28 28 29 30 31 34 37 39 40 40 40 39 38 36 33 32 31
24 24 24 23 23 23 24 24 23 22 22 22 20 19 17 16 15 14 15 14 14 14 14 14 14 13 13 12 11 10 11 11 12 15 15 12 12 14 15 15 15 15 13 13 12 13 13 13 13 14 14 14 14 15 15 15 15 14 14 16 16 17 17 17 17 16 17 19 21 25 27 28 28 29 30 31 33 35 38 39 40 39 38 37 35 36 34 30
24 24 24 23 23 24 24 24 23 22 22 21 20 18 16 15 14 14 15 13 13 14 14 14 14 12 12 11 11 11 11 13 14 15 13 12 11 13 14 14 14 13 12 12 11 11 11 11 11 12 12 12 12 13 14 14 13 13 14 15 16 17 17 17 16 15 16 19 21 23 26 28 29 29 30 31 32 34 36 38 38 38 38 37 35 36 37 33
24 24 24 24 23 24 24 24 23 22 22 20 18 17 16 15 14 14 14 13 12 13 14 12 10 11 12 11 10 11 13 14 14 13 12 11 11 13 14 13 12 12 11 10 9 9 8 8 10 10 11 11 11 12 13 13 13 14 15 15 16 16 17 17 18 17 18 20 22 23 24 26 28 28 29 30 32 33 35 36 37 37 37 37 36 34 36 37
24 24 24 23 24 24 24 24 23 22 21 19 18 17 16 15 14 13 13 13 13 13 14 12 11 12 13 11 11 12 14 13 12 10 10 10 11 14 14 12 11 10 9 9 8 7 8 10 10 10 11 10 10 12 14 13 14 15 15 15 16 16 17 18 19 19 19 20 22 23 23 24 25 26 28 29 31 32 34 35 36 38 37 37 37 35 34 37
24 24 24 23 24 24 24 24 23 22 20 17 18 17 15 15 14 14 15 15 15 14 14 14 13 13 12 11 12 13 13 12 11 10 9 10 12 13 12 11 10 8 8 10 10 9 10 10 10 11 11 10 10 13 14 13 14 14 14 15 16 16 16 18 19 19 18 19 21 22 23 23 24 25 27 28 31 32 33 33 33 37 38 36 37 37 34 33
24 24 24 24 24 24 24 24 22 21 19 17 17 16 15 16 15 15 16 16 16 14 13 12 12 11 10 10 11 10 11 11 11 10 9 11 12 11 10 10 9 8 8 10 10 9 10 10 11 11 11 11 12 13 13 13 13 13 13 14 14 13 15 16 17 18 17 18 18 19 21 23 23 24 26 27 28 31 32 33 33 34 36 37 37 37 36 32
24 24 23 23 24 24 24 23 22 20 17 16 16 15 16 16 15 16 15 15 15 13 11 11 11 10 9 10 9 9 11 11 10 8 8 11 12 12 11 10 9 9 9 9 8 8 10 10 10 11 11 12 13 12 13 13 13 13 13 13 13 12 12 13 13 13 15 17 18 18 19 20 21 22 24 26 26 28 31 32 33 32 33 37 37 35 36 35
24 24 23 24 24 24 24 23 21 18 16 16 15 14 16 16 16 16 14 14 14 12 10 10 10 8 8 10 9 9 11 11 10 9 9 11 12 12 11 10 9 9 8 8 8 9 10 9 9 11 10 11 13 13 13 12 12 13 12 12 12 12 12 12 11 11 12 14 16 17 17 17 18 20 22 24 26 28 29 30 31 32 31 34 36 35 35 35
24 24 23 24 24 24 23 21 18 17 16 15 13 14 16 16 15 15 14 13 12 10 8 8 8 6 7 10 9 9 12 11 9 10 11 11 12 11 11 9 8 8 7 7 8 9 10 10 10 11 11 12 13 13 12 12 11 11 11 11 12 13 13 12 12 11 10 10 12 14 15 15 15 18 20 21 24 26 27 29 30 30 30 31 32 34 34 35
24 24 24 24 24 24 22 19 17 18 17 14 14 16 16 15 15 14 13 12 10 7 7 7 8 7 8 10 10 10 11 9 8 10 11 11 10 10 10 9 7 7 8 8 8 8 7 8 9 11 12 13 13 12 11 11 11 10 10 10 11 13 13 12 12 11 10 9 10 12 14 14 12 14 16 19 22 24 26 27 27 28 29 31 31 32 32 33
24 23 24 24 23 22 20 18 18 18 16 14 15 16 16 15 14 13 11 11 9 8 8 7 8 9 9 10 11 10 9 9 9 10 10 9 9 9 9 8 7 8 9 8 8 7 7 9 9 10 11 11 11 10 9 9 11 10 10 10 11 12 12 13 12 10 9 9 10 11 13 13 12 11 13 17 20 22 24 25 25 26 28 29 30 31 31 30
24 24 24 24 23 21 19 18 19 18 15 15 15 15 15 14 13 12 11 10 8 8 9 8 9 10 10 11 11 9 9 10 10 9 9 10 10 9 9 9 10 10 9 9 9 7 8 10 9 8 8 8 8 9 9 10 11 10 10 10 11 13 13 13 12 10 9 9 9 9 10 11 11 9 10 15 18 20 23 23 23 24 25 27 28 30 30 28
23 24 24 24 23 20 18 18 18 17 16 15 15 15 14 13 12 10 10 10 8 8 9 9 9 9 10 10 9 8 9 9 9 10 10 10 9 8 9 10 11 11 10 10 10 9 8 8 7 7 7 6 7 8 8 8 8 9 10 12 13 13 12 12 11 10 9 9 9 8 9 10 7 4 4 9 13 15 20 22 21 21 20 21 23 26 26 23
24 24 24 23 21 18 17 17 16 15 15 15 15 15 14 12 11 10 10 10 9 9 9 9 9 9 9 10 8 8 9 9 9 10 10 9 8 8 9 10 10 10 10 10 10 9 9 7 6 6 5 5 6 6 5 6 7 8 10 12 13 11 10 9 9 9 9 9 8 8 10 9 6 3 1 5 6 7 12 19 21 18 13 13 16 19 19 17
24 23 23 22 19 17 17 16 15 15 15 15 15 14 12 11 10 11 10 9 9 9 8 9 10 9 10 10 8 8 9 8 9 10 9 9 8 8 9 9 9 8 9 9 7 8 9 7 6 5 4 5 5 4 4 7 8 8 8 8 9 7 6 6 7 8 8 6 6 7 6 4 5 4 2 5 5 5 8 12 17 16 12 13 15 17 18 17
23 23 23 20 17 16 17 16 16 15 14 14 14 13 11 11 10 10 10 9 9 9 9 9 10 10 10 10 8 8 8 7 8 9 9 8 8 8 8 8 9 9 9 7 7 9 9 7 7 6 5 5 5 4 5 6 6 6 6 4 5 4 3 4 5 6 6 5 6 7 4 4 6 4 4 7 6 8 10 11 12 13 11 12 15 15 16 17
23 22 21 18 16 15 15 16 16 15 14 13 13 11 11 11 10 10 11 10 9 10 9 9 9 10 10 9 8 8 7 6 8 9 9 8 8 8 9 9 10 10 8 7 7 8 7 6 8 8 6 6 6 6 6 4 4 4 4 2 3 3 2 3 4 4 4 4 4 7 5 5 7 5 5 8 7 7 11 11 10 11 11 11 12 13 15 17
23 21 18 16 15 15 15 16 15 14 13 12 12 11 10 11 10 9 10 10 8 9 9 8 9 10 9 8 7 7 7 6 7 9 8 8 8 8 9 10 10 10 9 8 7 6 6 5 5 6 6 7 8 7 5 6 5 4 4 4 4 5 3 2 2 2 1 1 3 5 5 6 8 7 6 8 8 7 9 10 9 9 10 11 11 12 14 16
22 19 16 16 15 14 15 15 14 13 12 11 11 11 10 11 11 10 10 10 9 10 10 8 10 9 7 7 6 6 6 6 7 8 8 8 8 8 9 9 10 11 9 8 7 6 7 5 4 6 7 7 8 6 5 6 5 3 4 4 5 6 6 3 2 2 1 1 1 3 5 7 8 8 8 7 8 8 8 8 9 8 8 9 10 11 13 15
20 16 15 15 14 13 14 14 13 12 11 11 11 11 11 11 11 10 10 10 10 10 11 9 9 8 7 6 6 6 5 6 8 8 7 7 7 8 10 9 9 11 9 8 7 5 6 7 6 7 8 7 7 7 5 5 4 4 5 5 4 6 8 5 3 3 2 3 3 5 8 8 7 8 7 6 7 7 7 7 8 8 8 7 8 10 11 13
18 16 15 14 12 13 14 13 12 11 11 10 10 11 11 10 11 11 10 10 10 9 9 9 7 7 7 6 6 6 6 6 7 7 7 7 7 8 10 9 9 10 10 8 6 4 6 8 7 7 7 6 7 7 6 5 4 4 5 4 4 6 7 6 4 4 4 4 4 6 9 8 7 7 6 5 5 5 4 3 5 6 7 7 8 9 11 12
17 16 15 13 12 13 14 12 11 11 10 10 11 11 11 10 10 11 10 9 8 8 7 7 7 6 7 7 7 7 7 6 7 7 7 7 7 8 9 9 9 10 10 8 6 5 7 8 5 6 8 6 6 5 5 4 3 4 5 4 4 4 4 5 4 5 6 4 3 7 9 6 5 6 5 4 3 2 1 2 2 4 5 6 7 9 11 12
16 15 13 12 12 14 14 12 11 11 10 10 11 10 9 9 9 9 8 7 7 7 7 6 7 7 6 7 8 7 7 7 7 7 6 7 7 7 8 9 8 9 10 9 7 6 7 6 4 6 7 6 5 3 2 3 3 4 4 4 3 3 4 5 5 6 6 4 5 8 7 4 5 6 4 3 2 1 2 2 3 4 5 6 7 9 10 12
15 14 12 11 13 14 12 11 10 10 9 10 11 9 9 9 9 8 7 7 7 7 7 7 7 7 7 7 7 7 7 7 7 6 6 7 7 6 7 9 9 9 10 9 8 8 7 5 5 6 5 4 3 2 2 3 3 3 3 2 2 2 3 5 6 8 6 4 6 7 7 5 5 5 4 2 2 3 3 3 4 4 5 6 7 9 10 12
15 14 12 12 13 12 11 10 9 10 10 11 10 9 9 9 8 8 7 5 6 7 7 7 7 7 7 7 7 7 7 7 6 5 5 7 7 6 8 10 9 9 10 8 7 8 7 5 6 6 5 5 3 2 3 3 3 3 2 2 2 2 2 4 6 7 6 5 5 7 8 6 4 4 4 2 3 3 3 4 5 5 6 7 8 9 10 12
14 13 11 11 12 11 10 10 9 10 10 10 9 9 8 8 7 7 7 5 5 7 6 7 7 7 7 7 6 7 7 6 5 5 6 7 8 8 8 9 8 8 9 8 7 7 7 6 6 6 5 5 4 2 3 4 2 2 2 2 3 3 3 3 5 4 4 4 4 7 8 6 4 4 3 3 3 4 4 6 6 7 8 9 9 10 11 12
14 13 11 10 11 10 10 10 9 10 9 9 10 8 7 7 6 6 6 6 6 7 7 7 7 7 6 7 6 6 6 6 5 5 7 7 7 8 8 8 8 8 8 7 7 7 6 6 6 6 5 4 3 1 2 4 2 2 2 2 2 3 4 4 5 5 4 3 4 7 8 6 5 5 4 4 4 5 6 7 8 9 10 11 11 11 11 13
14 13 11 10 10 10 10 9 9 10 9 11 11 7 6 6 5 6 7 7 7 7 7 7 7 6 6 7 6 6 5 4 4 5 7 7 7 7 7 7 7 8 9 7 7 7 6 6 7 7 5 3 2 1 1 3 3 0 1 2 2 2 3 4 5 5 5 3 5 6 7 6 5 4 4 5 6 6 7 9 10 10 11 11 12 12 13 14
13 12 10 9 10 10 10 10 10 10 10 11 10 7 5 4 5 6 7 8 7 7 8 7 7 7 7 7 6 5 5 4 4 5 6 6 6 5 6 7 7 8 9 7 7 7 6 7 8 7 6 5 3 2 2 4 3 1 1 2 1 2 2 3 4 4 5 3 3 3 5 5 4 3 4 5 7 8 9 10 11 11 12 12 12 13 14 15
11 10 10 10 11 10 9 10 10 10 10 10 8 6 5 4 4 5 6 7 7 7 8 8 7 7 7 7 6 5 5 4 4 5 6 6 6 5 5 7 7 8 7 6 6 6 5 7 8 7 7 6 5 4 3 4 4 3 3 3 1 1 1 2 4 3 3 4 2 2 3 4 3 4 6 7 8 9 10 11 12 12 12 13 13 13 14 15
10 10 11 11 11 10 9 9 9 10 10 8 5 5 5 5 4 4 5 7 8 7 8 8 7 7 7 7 6 5 5 4 3 4 5 6 6 5 5 6 6 6 5 5 7 7 5 7 8 8 8 7 7 7 6 6 7 5 5 4 2 1 1 2 3 2 3 5 3 2 3 4 4 6 8 9 9 10 11 12 12 13 13 13 13 14 14 15
10 10 10 10 10 10 9 10 10 10 9 6 4 5 6 6 5 5 6 7 8 8 7 7 7 7 7 7 5 4 5 4 3 3 5 5 6 6 5 4 6 5 4 5 8 6 5 7 7 7 8 7 7 8 8 9 9 7 6 5 4 2 1 2 1 1 2 3 3 3 3 3 4 7 8 9 10 11 12 12 13 13 12 12 13 14 14 15
10 10 9 10 11 10 10 11 11 10 8 5 4 5 6 6 6 6 6 7 8 8 7 7 7 6 6 6 5 4 4 4 4 4 5 5 5 6 5 4 6 6 5 5 6 4 4 6 6 6 7 6 6 6 7 9 10 10 8 7 5 4 3 2 2 1 1 1 2 3 3 2 4 6 8 9 10 10 11 11 12 12 11 12 12 13 14 15
10 10 10 11 11 10 10 10 9 8 5 4 4 5 6 6 6 6 6 7 8 8 7 7 8 7 7 6 5 4 4 4 5 5 5 5 5 5 4 4 6 6 6 5 5 4 4 4 4 5 5 5 4 4 4 6 9 10 10 9 7 5 4 3 2 1 0 1 2 3 3 3 5 6 7 8 9 9 9 10 10 10 10 11 11 12 13 14
10 10 11 11 10 9 9 9 8 6 4 3 4 5 5 6 6 6 6 7 8 8 7 8 9 8 7 6 5 5 4 5 5 5 4 4 4 4 4 5 6 6 5 5 4 4 4 3 3 3 3 3 2 2 2 3 5 7 9 9 7 6 5 3 2 2 1 1 3 3 4 5 6 7 8 8 9 9 10 10 10 10 10 11 11 12 13 13
10 11 11 10 9 9 9 9 7 5 4 4 5 5 6 5 5 6 7 7 7 7 7 7 8 7 6 5 4 4 5 6 6 5 5 4 4 4 4 5 5 5 5 5 4 3 3 2 1 2 3 3 1 1 1 2 4 5 7 8 7 5 5 4 3 2 2 2 3 4 5 6 7 8 8 9 9 10 10 11 10 10 10 10 11 12 13 13
Wind_Direction
345 344 343 340 338 336 335 334 332 329 327 325 323 322 322 322 322 322 321 320 319 318 316 315 313 310 309 308 308 306 303 299 296 291 285 287 290 286 283 280 276 272 270 267 263 261 256 251 250 247 245 243 240 239 237 237 236 235 236 239 241 242 242 242 245 247 251 252 249 248 248 248 247 244 241 240 241 240 237 235 233 233 229 226 221 207 204 205
345 344 343 340 338 336 334 334 332 331 329 327 324 322 321 321 321 321 321 320 319 318 317 315 313 310 308 308 307 306 303 298 295 292 288 288 289 287 285 281 276 272 270 269 267 262 257 255 253 247 246 245 242 239 238 236 236 236 237 239 241 243 244 245 247 248 251 253 253 250 248 248 246 245 243 241 240 237 236 234 231 227 223 221 214 208 207 205
345 343 342 340 338 336 334 333 332 330 329 327 324 322 320 320 320 320 320 320 319 318 317 315 313 310 308 308 307 307 304 300 295 290 289 292 291 289 287 282 277 273 269 271 271 265 259 259 256 250 247 246 243 239 237 237 237 238 238 241 243 244 246 248 248 249 251 253 252 251 253 252 248 245 242 242 240 234 234 234 230 224 219 218 215 213 210 208
345 343 341 339 338 336 334 332 331 330 329 327 325 322 321 319 319 319 319 319 319 318 317 316 314 311 309 308 307 308 306 302 298 294 295 295 295 292 288 284 279 274 271 273 270 265 261 258 255 252 250 248 244 240 239 237 237 238 239 243 246 247 248 248 248 249 252 253 251 251 253 250 248 247 240 239 240 234 233 232 231 226 219 219 218 213 212 212
345 343 341 339 337 336 334 332 331 329 328 327 325 323 321 320 318 318 318 318 318 317 317 316 314 312 310 308 307 305 306 305 299 297 295 295 296 293 288 285 281 275 274 273 268 264 262 258 257 255 251 250 246 242 241 238 238 241 242 245 247 249 250 249 248 249 250 250 250 251 252 249 247 248 241 236 237 234 233 233 233 231 222 221 220 215 215 217
345 343 341 340 338 336 334 332 330 329 328 327 325 323 322 320 319 318 317 317 317 317 317 317 315 313 311 309 307 302 302 305 301 296 293 293 294 291 288 286 280 278 276 274 270 266 264 260 257 253 251 250 247 244 241 240 240 243 245 247 248 249 250 249 249 250 250 250 249 248 251 249 243 243 244 241 238 233 234 236 235 234 227 220 221 221 219 220
344 343 342 340 339 337 334 332 330 329 328 327 325 323 322 321 319 317 316 315 316 317 317 317 315 314 313 310 306 301 299 301 304 302 297 293 292 289 286 285 281 279 277 274 271 270 268 263 256 256 255 250 249 248 244 243 242 243 246 247 248 249 249 250 249 249 249 251 251 248 249 247 239 239 244 247 243 234 233 237 237 237 229 220 222 224 222 222
344 343 342 341 339 337 335 332 330 329 328 327 326 324 322 321 319 316 315 314 316 317 317 317 316 315 316 314 309 305 300 299 303 305 303 296 291 288 285 285 281 278 277 275 273 273 270 263 259 262 259 251 253 254 248 248 247 247 249 249 249 250 249 251 250 248 248 249 250 247 246 246 243 240 241 246 247 238 234 234 238 238 227 220 223 225 224 225
343 342 341 341 340 338 336 334 331 330 329 328 327 325 323 321 318 316 315 315 316 317 317 317 317 316 317 316 312 309 305 301 301 302 305 300 292 289 285 284 280 277 280 279 274 271 266 265 265 265 261 256 259 258 251 250 251 249 250 251 251 252 251 251 250 248 248 247 246 245 244 245 245 242 242 244 245 244 238 230 235 239 230 224 225 226 225 224
341 341 341 340 339 338 337 335 332 330 329 328 327 325 324 322 319 317 315 316 317 317 318 317 318 317 315 314 312 312 308 302 300 300 303 301 294 290 286 286 284 280 282 280 274 269 268 271 269 267 264 259 259 258 252 251 252 252 254 254 253 254 253 252 251 250 248 247 245 244 243 244 244 243 241 240 239 244 240 228 232 240 236 229 223 225 226 225
339 340 339 339 339 339 337 335 333 330 329 328 328 326 325 323 320 318 316 316 317 317 318 318 318 316 312 310 310 312 308 302 303 301 301 302 297 294 291 291 289 284 282 279 274 270 270 271 268 264 259 258 261 259 254 252 253 255 257 257 255 255 254 252 251 250 249 247 245 245 245 244 243 241 239 237 238 240 238 234 237 240 239 231 222 224 226 225
337 338 338 337 337 338 337 335 333 330 328 328 327 326 325 323 320 318 317 317 317 318 318 318 318 316 314 310 307 312 312 305 306 303 300 304 302 299 298 297 292 285 282 279 276 273 270 268 266 260 257 262 264 258 258 258 255 258 259 258 257 255 254 252 250 249 248 246 245 245 246 244 241 240 239 238 239 239 239 240 239 238 237 231 224 226 227 225
335 336 336 336 336 336 336 335 333 330 328 327 327 326 324 322 319 318 318 318 317 319 319 318 318 317 315 314 311 315 315 307 306 308 303 305 304 300 299 299 297 289 283 279 276 276 273 268 264 260 260 264 261 259 266 263 257 259 259 258 259 258 255 252 250 247 246 245 244 244 245 243 241 240 241 240 239 239 240 240 238 236 236 233 228 228 228 228
334 334 335 335 334 335 335 334 333 330 328 327 327 326 323 321 319 318 317 317 317 318 319 319 319 318 313 311 314 319 319 311 305 307 307 306 304 301 295 292 297 294 285 279 276 274 272 268 264 262 260 260 260 263 266 263 257 258 258 257 256 257 257 255 252 246 244 244 240 240 244 245 244 243 242 240 238 238 239 238 236 236 237 237 233 229 229 230
333 333 334 334 334 334 334 333 332 330 329 328 327 325 322 320 318 317 317 317 317 318 319 318 317 318 316 307 307 320 324 317 311 311 312 310 305 306 302 291 295 296 287 282 278 273 270 266 264 262 260 257 257 260 262 260 257 254 255 256 254 255 258 258 255 248 246 244 236 236 243 246 246 245 244 241 237 236 237 236 235 234 235 236 234 230 229 231
332 333 333 333 333 333 333 333 331 330 329 328 327 325 321 319 318 316 315 315 317 319 318 317 313 312 317 317 309 315 320 316 318 318 313 312 309 310 311 301 296 294 286 284 281 274 268 264 263 261 261 259 254 255 258 259 256 251 250 253 255 257 261 262 259 253 250 246 237 237 243 246 246 246 245 242 238 235 234 234 232 232 233 232 231 229 229 230
331 332 332 333 332 332 333 332 330 330 328 328 327 324 321 320 319 316 314 313 317 321 318 315 316 310 311 318 312 308 316 315 317 319 314 313 315 314 313 306 299 293 283 281 279 275 268 263 261 259 259 258 254 253 255 257 257 255 253 255 259 261 265 266 261 258 253 249 245 242 244 246 247 247 246 243 240 235 232 232 231 230 230 229 229 229 230 230
330 331 332 332 331 332 332 331 330 329 329 328 326 323 320 319 320 318 315 315 317 320 319 313 314 315 311 312 310 309 318 319 317 319 316 309 312 319 316 307 303 298 286 280 275 273 270 263 260 260 256 252 252 252 253 257 260 260 260 261 265 266 268 267 261 260 258 255 253 252 251 248 246 246 246 244 242 237 231 229 229 228 227 228 228 228 229 228
330 330 330 331 331 331 331 331 330 329 330 329 327 324 320 317 319 317 314 317 315 317 324 317 308 314 317 316 317 316 318 318 316 316 318 315 315 321 318 307 302 299 290 283 272 267 269 263 259 260 256 252 254 256 256 260 264 265 264 263 265 265 265 267 267 265 264 261 257 257 257 253 248 246 245 243 241 239 232 227 227 227 226 226 227 227 227 227
329 329 329 330 330 330 330 330 329 329 330 329 328 325 322 321 320 317 315 312 307 313 321 320 313 311 312 315 318 319 317 315 312 312 320 327 325 322 319 309 298 291 287 284 274 269 272 268 262 257 260 264 261 256 257 263 267 268 267 265 266 266 266 267 267 267 265 262 259 257 258 257 252 248 246 242 239 237 233 227 224 224 225 224 224 225 225 226
329 329 328 329 330 329 330 329 328 329 328 328 327 325 328 332 326 321 321 313 306 311 313 313 316 309 305 314 316 318 319 317 317 315 319 327 325 322 325 319 302 291 289 287 285 281 271 264 261 261 268 270 257 251 257 266 267 268 267 268 270 269 270 270 268 270 267 262 259 255 255 257 254 251 247 240 236 234 232 229 223 220 223 224 222 223 225 226
328 328 328 328 329 329 329 328 327 327 326 325 323 323 331 335 327 320 320 316 310 310 307 305 310 308 307 317 319 321 318 315 318 315 317 325 325 324 328 323 307 299 299 292 287 278 266 264 269 274 276 267 257 255 260 265 266 269 270 272 277 276 276 274 269 269 268 261 259 257 254 254 255 253 248 240 234 231 229 229 224 219 220 222 221 220 222 224
327 328 327 326 328 328 328 328 326 326 326 323 323 327 331 330 326 322 317 314 312 308 304 304 304 305 313 320 319 321 317 317 319 317 320 321 321 323 321 317 311 311 308 294 280 271 270 272 276 284 277 259 259 261 261 265 269 274 275 272 274 279 280 277 271 269 269 261 256 258 255 253 255 252 245 238 231 226 227 227 222 217 217 219 219 218 220 223
326 327 326 326 326 327 328 328 325 324 323 320 325 333 331 327 327 326 319 313 312 306 306 317 313 300 314 323 314 310 316 322 317 312 320 320 319 321 318 315 313 313 307 288 276 272 270 268 275 286 275 256 262 268 268 272 270 269 273 272 270 275 280 280 277 275 275 263 248 249 252 252 253 249 243 237 228 224 225 224 220 218 218 216 216 218 219 222
325 326 326 325 325 326 326 326 324 324 322 319 325 332 329 327 328 327 322 317 314 306 303 317 320 307 315 322 313 308 316 322 316 310 319 323 320 319 317 314 311 313 313 298 289 284 277 277 279 278 271 266 268 270 271 273 271 267 271 276 271 271 279 281 275 269 271 264 246 245 250 252 251 247 242 231 224 224 220 216 218 220 217 212 213 218 217 219
324 325 326 324 325 325 323 324 325 325 323 321 325 328 327 327 328 327 324 319 316 314 308 305 311 314 313 317 320 316 314 320 318 311 316 321 321 318 316 315 309 314 319 308 297 290 288 295 286 271 272 277 274 273 272 267 268 267 270 277 270 270 278 280 277 271 265 263 257 253 252 252 248 247 242 224 219 222 215 211 217 219 214 211 215 217 216 218
323 323 325 324 323 324 323 322 323 322 323 324 325 326 326 326 328 328 323 319 316 313 314 311 311 311 307 313 320 314 315 326 321 312 314 317 320 317 313 313 310 313 319 313 304 295 295 302 295 277 276 279 275 274 271 266 264 258 264 273 270 274 281 279 275 266 261 267 266 258 253 250 245 252 250 225 216 217 212 212 215 211 210 212 215 216 216 219
321 322 323 323 321 320 319 320 320 320 325 328 325 323 325 325 326 327 323 325 326 314 313 320 318 312 306 306 307 305 314 323 322 323 320 313 314 312 307 309 308 306 304 298 299 301 296 298 297 285 281 285 283 274 269 269 262 253 263 273 270 272 277 279 272 258 257 269 266 253 247 243 237 256 257 222 209 208 207 209 207 203 208 214 215 215 217 220
320 321 322 322 320 316 315 318 317 318 325 327 323 323 325 324 324 324 319 321 328 319 314 319 316 312 311 308 305 308 312 314 320 326 326 319 313 309 310 315 314 310 301 289 295 305 300 299 301 291 286 286 281 277 272 262 253 253 264 270 271 271 274 276 268 257 256 255 254 244 232 229 224 269 268 203 198 204 204 205 203 201 208 215 215 211 211 216
320 320 321 321 320 318 316 317 314 315 321 323 322 323 322 322 322 319 316 320 325 322 319 322 321 318 320 319 317 313 309 314 321 320 325 326 314 303 312 324 323 316 310 301 297 300 295 297 304 296 295 298 282 278 278 261 261 270 271 272 271 269 277 273 256 257 257 245 248 247 235 230 220 239 243 168 177 192 197 201 200 198 200 202 202 197 196 202
320 319 320 320 318 318 317 317 319 319 320 321 322 321 321 322 319 317 321 322 320 322 322 320 325 327 326 326 321 312 310 316 321 320 325 327 319 312 314 326 331 320 317 314 296 287 289 294 307 300 302 313 294 278 290 282 275 270 274 286 276 265 285 277 245 245 246 239 248 243 229 213 200 208 178 145 150 142 154 176 181 181 181 184 189 189 190 195
320 319 319 317 314 315 315 318 323 321 319 321 320 319 322 321 315 317 325 322 314 322 322 312 320 327 323 323 318 314 318 317 320 329 332 325 324 326 321 327 333 326 328 332 307 293 291 287 299 303 303 315 307 295 299 295 276 257 259 298 293 268 286 273 239 229 235 251 246 222 193 151 167 177 135 132 140 142 142 148 159 168 173 179 187 191 194 199
320 319 319 317 315 315 315 317 321 320 320 322 319 319 322 320 320 320 322 326 323 321 319 312 320 323 317 318 321 323 326 315 318 332 333 324 322 327 326 327 329 327 327 328 314 305 300 284 285 292 290 297 309 308 303 300 289 262 240 252 288 276 270 246 221 205 230 260 229 207 197 165 166 169 140 138 143 153 157 156 157 168 177 182 189 194 199 205
319 318 318 318 316 315 316 317 320 321 320 319 316 319 319 316 325 329 324 333 335 324 324 322 320 318 312 315 326 334 330 316 323 335 334 331 331 332 332 330 332 333 324 318 319 310 305 302 294 294 288 287 301 311 307 297 286 260 222 229 263 264 261 260 227 211 239 255 220 215 203 161 159 164 149 143 145 148 160 169 167 170 181 189 195 202 208 213
319 317 317 318 316 315 317 318 319 321 320 316 313 315 316 316 326 332 325 328 330 324 325 322 317 318 314 313 324 337 331 319 328 336 336 340 343 341 341 338 338 340 331 325 329 312 302 317 329 317 304 295 302 308 305 296 280 244 227 242 252 238 241 265 244 243 267 132 176 186 157 144 150 154 149 146 145 142 151 170 177 178 183 192 203 212 215 219
318 316 315 316 316 318 320 318 318 320 318 314 312 315 322 325 327 329 324 322 324 324 322 319 320 322 317 314 321 331 330 318 322 329 332 338 343 346 348 346 343 343 339 331 330 316 305 316 320 312 303 297 306 302 284 286 278 250 248 260 256 232 237 252 224 202 189 166 163 146 142 147 152 151 149 143 138 140 147 158 172 183 190 195 207 217 220 223
320 316 312 311 315 321 322 318 316 317 316 315 316 317 322 327 327 326 324 322 320 320 320 321 326 323 318 321 324 328 329 322 321 327 329 332 337 344 347 348 347 346 346 337 329 325 319 316 312 314 312 308 314 297 268 273 277 258 263 273 267 246 237 232 205 181 174 174 179 162 156 163 169 163 154 138 124 128 143 153 171 188 201 210 219 227 228 228
319 318 313 312 320 325 323 319 317 315 311 312 314 317 321 328 332 329 328 327 321 317 316 319 326 323 319 322 322 326 329 324 320 323 328 332 336 341 344 346 349 349 349 345 338 336 332 322 314 324 323 318 322 301 260 264 270 263 274 264 256 265 232 208 202 195 183 179 187 171 161 163 174 167 157 143 127 127 169 199 210 213 220 226 231 235 235 235
316 317 314 314 321 324 322 321 320 316 312 312 315 319 323 330 340 343 340 334 325 322 320 320 325 323 318 317 317 322 326 320 318 322 327 331 328 330 338 342 345 348 350 348 343 342 340 331 321 327 325 319 327 326 278 278 265 267 283 254 233 249 224 211 215 209 195 187 185 173 159 151 166 169 164 160 165 215 241 242 246 242 239 242 244 243 243 243
315 314 313 315 318 321 322 320 319 318 316 316 317 321 322 324 335 345 343 334 324 323 325 325 323 317 316 317 315 318 323 318 319 326 332 335 332 330 339 343 342 345 347 345 344 346 345 341 336 340 350 350 337 336 340 315 275 273 287 258 237 237 224 223 218 213 208 195 182 173 158 147 166 181 180 176 202 240 254 257 260 257 255 258 258 254 251 249
314 313 313 315 318 320 318 315 316 319 317 316 319 325 326 323 325 333 336 335 329 323 320 322 321 314 314 318 314 317 322 317 315 327 333 338 343 341 340 342 340 343 347 346 347 348 342 337 333 337 4 19 360 328 333 327 291 265 233 221 252 241 223 222 212 207 204 200 194 180 166 157 171 191 191 197 229 249 271 277 271 271 273 270 267 264 260 257
312 313 315 317 321 321 315 312 315 319 320 322 325 327 324 317 316 325 327 316 322 330 325 320 322 318 314 313 311 315 321 314 310 327 336 338 344 344 343 345 343 345 349 348 348 347 339 335 333 327 343 4 359 349 352 341 306 209 180 223 254 234 223 217 210 212 217 216 200 176 175 188 210 222 225 237 257 266 281 287 280 277 278 274 271 269 265 262
311 315 316 316 322 321 313 314 317 319 323 328 327 324 325 321 312 316 321 313 321 332 326 319 322 322 318 314 309 312 320 314 307 327 339 340 344 348 350 352 350 351 352 349 349 350 345 343 337 323 325 341 336 344 36 17 6 177 195 287 275 246 245 231 220 218 214 229 220 187 182 200 222 244 254 262 283 285 284 289 287 283 279 276 275 272 268 265
312 314 313 314 321 320 314 316 319 320 323 326 326 320 321 327 316 311 322 327 328 327 320 318 320 316 316 314 305 304 313 311 307 325 336 340 342 347 353 356 356 358 359 356 355 358 358 356 347 335 331 337 318 273 9 13 13 190 264 299 280 270 261 230 221 207 193 231 259 217 190 194 219 255 274 278 289 290 289 291 290 287 284 281 277 273 270 269
312 313 313 317 320 316 314 317 318 317 319 323 324 315 309 321 323 319 318 318 323 330 325 319 315 311 314 313 302 295 299 298 301 316 331 339 339 343 352 353 357 4 4 360 356 358 5 5 0 358 358 360 1 351 340 350 1 13 336 328 293 301 286 218 210 198 196 234 265 216 200 209 232 282 305 297 291 289 293 295 294 292 289 285 280 275 273 272
314 315 316 319 319 313 310 316 317 315 319 323 319 311 311 317 322 326 322 317 323 329 323 317 317 317 317 314 302 292 293 294 295 311 326 335 336 338 344 345 358 9 5 358 356 358 10 16 16 21 25 27 39 47 39 34 42 53 36 18 3 337 314 202 187 185 224 236 210 196 246 251 267 305 312 307 301 296 297 299 299 296 292 287 283 280 279 276
311 317 318 320 321 317 314 317 319 319 323 325 314 309 313 311 312 320 324 325 327 328 322 320 321 318 315 315 306 293 298 299 293 312 328 333 335 338 339 341 356 4 353 358 11 13 22 29 30 40 50 57 66 69 66 60 55 54 51 45 40 39 89 155 165 200 250 236 210 253 284 268 283 310 315 314 311 305 302 303 301 298 294 291 288 287 286 282
309 316 321 322 319 315 315 318 319 319 318 313 302 306 310 307 304 308 317 323 327 329 327 320 317 315 315 314 304 292 302 302 291 313 330 332 333 339 342 341 350 352 342 360 17 22 31 37 41 54 64 69 73 73 68 63 59 57 56 54 53 58 89 125 148 206 232 218 230 283 301 283 295 312 315 313 312 308 306 305 303 299 297 296 295 293 292 290
311 316 321 322 316 310 311 315 318 315 312 305 294 298 305 306 305 310 319 324 323 325 326 320 320 323 319 311 297 288 300 300 291 308 326 329 330 337 342 342 346 351 353 3 13 15 21 34 48 61 67 70 73 76 72 64 59 55 53 57 64 70 83 101 117 160 172 198 265 286 294 296 310 316 313 309 309 308 308 308 308 306 303 303 302 299 298 297
311 317 318 318 316 312 310 313 316 313 308 303 297 298 304 307 311 317 322 321 320 325 327 322 323 325 317 308 295 284 290 295 290 297 313 321 328 335 337 336 341 349 354 1 7 7 10 30 54 60 62 65 71 83 80 62 50 47 48 52 58 63 72 81 80 84 135 302 302 297 293 296 310 317 315 314 317 318 319 321 320 315 311 311 311 308 308 307
307 314 314 313 315 316 313 313 314 309 299 292 299 309 311 310 319 326 320 311 311 320 326 323 324 324 315 302 290 280 284 289 284 283 291 303 321 332 333 333 339 346 354 357 360 7 20 46 65 55 43 40 59 102 95 49 29 32 40 42 43 49 50 45 38 39 30 329 325 327 319 310 313 319 320 323 326 327 327 327 326 323 319 318 319 318 316 315
307 310 309 307 309 313 314 314 308 298 295 293 292 298 304 308 320 328 324 317 319 328 329 321 321 324 315 302 290 281 286 287 276 272 271 276 300 317 322 336 344 345 350 356 355 5 32 46 20 17 10 4 25 139 108 11 2 19 32 33 34 38 32 29 33 41 49 7 342 339 327 313 314 320 322 322 324 327 329 327 324 325 325 325 326 322 320 320